Simultaneous Nadir Overpasses (SNOs) Predictions

Prediction of SNOs between GOES-17 and AQUA Satellite Orbit:

Table of predicted SNOs for the next 14.0 days since TLE Epoch: 10/4/2019
Index Date Time (GOES-17) GOES-17 Lat,Lon AQUA Lat,Lon Distance(km) Time Diff (sec)
1 10/05/2019 22:39:50 0.02,-137.20 0.17,-136.46 83.82 80
2 10/07/2019 22:27:39 0.02,-137.20 0.81,-133.51 420.13 80
3 10/08/2019 10:48:54 -0.02,-137.21 0.29,-138.66 164.89 80
4 10/10/2019 10:39:23 -0.01,-137.21 -0.35,-135.71 171.19 80
5 10/10/2019 22:58:07 0.01,-137.20 -0.80,-140.90 420.56 80
6 10/12/2019 22:45:56 0.00,-137.20 -0.15,-137.94 84.91 80
7 10/14/2019 22:36:24 -0.01,-137.19 0.44,-134.98 250.23 80
8 10/15/2019 10:54:59 0.01,-137.19 0.61,-140.15 335.39 80
9 10/17/2019 10:42:48 0.02,-137.17 0.02,-137.18 1.20 80




NCC Satellite Simultaneous Nadir Overpasses (SNOs) Prediction Service
